Location: Arborea
(39.7744°N, 8.5819°E)
Time: 03:30:40
(UTC+00:00)

OAO 3 Rocket - Pass Details

Date: 24 October 2021
Orbit: 628 x 682 km, 35.0° (Epoch: 29 November)

Event Time Altitude Azimuth Distance (km) Brightness Sun altitude
Rises 17:39:26 0° 229° (SW) 2,944 7.5 -13.3°
Reaches altitude 10° 17:42:02 10° 218° (SW) 2,046 6.3 -13.8°
Maximum altitude 17:46:05 28° 160° (SSE) 1,234 4.4 -14.6°
Enters shadow 17:48:19 19° 119° (ESE) 1,539 4.6 -15.0°
